N8TWM-13 Weather Reports


Display with metric or nautical units.
time (UTC)temp
F
wind
direction
speed
MPH
gust
MPH
rain 1hr
in
rain 24hr
in
rain mn
in
humidity
%
barometer
mb
20260903065036 80 238 1.0 2.0 0.00 0.00 0.00 81 1016.3
20260903064531 80 244 0.0 0.0 0.00 0.00 0.00 81 1016.3
20260903064027 80 238 0.0 0.0 0.00 0.00 0.00 81 1016.5
20260903063522 80 245 0.0 0.0 0.00 0.00 0.00 82 1016.4
20260903063017 80 235 1.0 1.0 0.00 0.00 0.00 81 1016.3
20260903062512 80 250 0.0 0.0 0.00 0.00 0.00 81 1016.5
20260903062008 80 235 0.0 0.0 0.00 0.00 0.00 81 1016.4
20260903061503 80 240 0.0 0.0 0.00 0.00 0.00 81 1016.8
20260903060957 80 229 0.0 0.0 0.00 0.00 0.00 81 1016.5
20260903060452 80 239 0.0 0.0 0.00 0.00 0.00 81 1016.9
20260903055951 80 238 0.0 0.0 0.00 0.00 0.00 81 1016.6
20260903055449 81 246 0.0 0.0 0.00 0.00 0.00 81 1016.6
20260903054948 81 239 0.0 0.0 0.00 0.00 0.00 80 1016.8
20260903054443 81 251 2.0 2.0 0.00 0.00 0.00 80 1016.8
20260903053939 81 253 0.0 0.0 0.00 0.00 0.00 80 1016.5
20260903053439 81 225 0.0 0.0 0.00 0.00 0.00 80 1016.5
20260903052936 81 184 0.0 0.0 0.00 0.00 0.00 80 1016.5
20260903052431 81 241 0.0 1.0 0.00 0.00 0.00 80 1016.4
20260903051927 81 230 0.0 0.0 0.00 0.00 0.00 79 1016.2
20260903051422 81 238 1.0 1.0 0.00 0.00 0.00 79 1016.3
20260903050918 81 242 0.0 0.0 0.00 0.00 0.00 79 1016.3
20260903050416 82 246 0.0 0.0 0.00 0.00 0.00 79 1016.1
20260903045911 82 266 3.0 5.0 0.00 0.00 0.00 79 1016.4
20260903045406 82 235 0.0 0.0 0.00 0.00 0.00 78 1016.3
20260903044858 82 255 1.0 1.0 0.00 0.00 0.00 78 1016.3
20260903044358 82 161 1.0 2.0 0.00 0.00 0.00 78 1016.1
20260903043855 82 260 0.0 0.0 0.00 0.00 0.00 78 1016.2
20260903043349 82 280 3.0 3.0 0.00 0.00 0.00 77 1016.2
20260903042848 82 239 1.0 2.0 0.00 0.00 0.00 77 1016.0
20260903042343 82 244 2.0 2.0 0.00 0.00 0.00 77 1015.9
20260903041839 82 251 0.0 0.0 0.00 0.00 0.00 77 1016.0
20260903041335 82 233 0.0 1.0 0.00 0.00 0.00 77 1016.0
20260903040831 82 256 1.0 2.0 0.00 0.00 0.00 78 1016.0
20260903040330 82 241 0.0 0.0 0.00 0.00 0.00 78 1015.8
20260903035826 82 241 1.0 2.0 0.00 0.00 0.00 78 1015.7
20260903035321 82 250 1.0 1.0 0.00 0.00 0.00 78 1015.7
20260903034816 82 223 1.0 1.0 0.00 0.00 0.00 78 1015.6
20260903034311 82 244 0.0 0.0 0.00 0.00 0.00 78 1015.5
20260903033806 82 267 0.0 1.0 0.00 0.00 0.00 79 1015.6
20260903033301 82 195 0.0 1.0 0.00 0.00 0.00 79 1015.6
20260903032755 81 227 3.0 5.0 0.00 0.00 0.00 79 1015.6
20260903032252 81 226 0.0 0.0 0.00 0.00 0.00 80 1015.8
20260903031747 81 234 0.0 0.0 0.00 0.00 0.00 80 1015.8
20260903031241 81 216 0.0 0.0 0.00 0.00 0.00 79 1016.0
20260903030737 81 235 0.0 0.0 0.00 0.00 0.00 79 1016.1
20260903030233 81 233 0.0 0.0 0.00 0.00 0.00 79 1016.1
20260903025728 81 251 0.0 1.0 0.00 0.00 0.00 80 1016.2
20260903025224 81 238 0.0 0.0 0.00 0.00 0.00 80 1016.3
20260903024724 81 242 0.0 0.0 0.00 0.00 0.00 80 1016.1
20260903024223 81 248 0.0 0.0 0.00 0.00 0.00 80 1016.5
20260903023719 81 247 0.0 0.0 0.00 0.00 0.00 80 1016.5
20260903023214 81 237 0.0 0.0 0.00 0.00 0.00 80 1016.3
20260903022714 81 229 0.0 0.0 0.00 0.00 0.00 80 1016.5
20260903022212 81 232 0.0 0.0 0.00 0.00 0.00 79 1016.4
20260903021707 81 250 0.0 0.0 0.00 0.00 0.00 79 1016.5
20260903021202 81 237 0.0 0.0 0.00 0.00 0.00 79 1016.8
20260903020657 81 265 0.0 0.0 0.00 0.00 0.00 79 1016.6
20260903020157 81 236 0.0 0.0 0.00 0.00 0.00 79 1016.4
20260903015652 81 242 0.0 0.0 0.00 0.00 0.00 79 1016.6
20260903015148 81 232 0.0 0.0 0.00 0.00 0.00 79 1016.8
20260903014648 81 228 1.0 1.0 0.00 0.00 0.00 78 1016.6
20260903014142 81 223 0.0 0.0 0.00 0.00 0.00 79 1016.9
20260903013637 81 226 0.0 0.0 0.00 0.00 0.00 79 1016.8
20260903013137 81 206 0.0 0.0 0.00 0.00 0.00 79 1016.6
20260903012636 81 244 0.0 0.0 0.00 0.00 0.00 79 1016.4
20260903012135 82 236 0.0 0.0 0.00 0.00 0.00 78 1016.6
20260903011634 82 240 0.0 0.0 0.00 0.00 0.00 78 1016.6
20260903011129 82 234 0.0 0.0 0.00 0.00 0.00 77 1016.4
20260903010624 82 242 0.0 0.0 0.00 0.00 0.00 77 1016.5
20260903010123 82 232 0.0 0.0 0.00 0.00 0.00 77 1016.5
20260903005618 82 236 0.0 0.0 0.00 0.00 0.00 77 1016.4
20260903005114 82 255 0.0 0.0 0.00 0.00 0.00 77 1016.4
20260903004614 82 225 0.0 0.0 0.00 0.00 0.00 76 1016.4
20260903004109 82 236 0.0 0.0 0.00 0.00 0.00 76 1016.4
20260903003604 82 230 0.0 0.0 0.00 0.00 0.00 76 1016.1
20260903003059 83 241 0.0 0.0 0.00 0.00 0.00 76 1015.9
20260903002554 83 236 0.0 0.0 0.00 0.00 0.00 76 1016.0
20260903002049 83 235 0.0 0.0 0.00 0.00 0.00 76 1016.1
20260903001549 83 240 0.0 0.0 0.00 0.00 0.00 76 1016.0
20260903001043 84 241 0.0 0.0 0.00 0.00 0.00 75 1016.2
20260903000538 84 234 0.0 0.0 0.00 0.00 0.00 74 1016.4
20260903000032 84 245 0.0 0.0 0.00 0.00 0.00 74 1016.5
20260902235532 85 239 0.0 0.0 0.00 0.00 0.00 75 1016.6
20260902235027 85 246 0.0 1.0 0.00 0.00 0.00 73 1016.6
20260902234527 85 231 0.0 0.0 0.00 0.00 0.00 73 1016.5
20260902234025 86 235 0.0 0.0 0.00 0.00 0.00 73 1016.6
20260902233520 86 239 0.0 0.0 0.00 0.00 0.00 73 1016.3
20260902233015 86 229 0.0 1.0 0.00 0.00 0.00 73 1016.6
20260902232514 86 224 0.0 0.0 0.00 0.00 0.00 73 1016.4
20260902232003 87 241 1.0 1.0 0.00 0.00 0.00 72 1016.6
20260902231457 87 239 0.0 0.0 0.00 0.00 0.00 71 1016.6
20260902230952 87 230 0.0 0.0 0.00 0.00 0.00 71 1016.5
20260902230451 87 224 1.0 1.0 0.00 0.00 0.00 70 1016.9
20260902225951 88 238 1.0 2.0 0.00 0.00 0.00 70 1016.8
20260902225446 88 226 2.0 3.0 0.00 0.00 0.00 69 1016.6
20260902224945 88 201 3.0 5.0 0.00 0.00 0.00 68 1016.5
20260902224444 89 235 3.0 6.0 0.00 0.00 0.00 67 1016.6
20260902223942 90 229 2.0 2.0 0.00 0.00 0.00 66 1016.2
20260902223437 90 237 0.0 1.0 0.00 0.00 0.00 66 1016.2
20260902222936 90 219 1.0 2.0 0.00 0.00 0.00 66 1016.1
20260902222435 89 252 1.0 2.0 0.00 0.00 0.00 66 1015.8
20260902221934 90 225 2.0 3.0 0.00 0.00 0.00 64 1015.9
20260902221433 90 233 3.0 5.0 0.00 0.00 0.00 64 1015.8
20260902220929 91 215 2.0 5.0 0.00 0.00 0.00 63 1016.1
20260902220423 91 241 0.0 0.0 0.00 0.00 0.00 64 1016.0
20260902215918 91 231 1.0 2.0 0.00 0.00 0.00 64 1015.8
20260902215414 91 239 0.0 0.0 0.00 0.00 0.00 63 1016.2
20260902214910 91 246 2.0 3.0 0.00 0.00 0.00 63 1016.0
20260902214408 91 236 1.0 2.0 0.00 0.00 0.00 63 1016.0
20260902213903 91 233 0.0 1.0 0.00 0.00 0.00 63 1016.1
20260902213400 91 173 3.0 5.0 0.00 0.00 0.00 63 1016.1
20260902212858 91 254 1.0 2.0 0.00 0.00 0.00 62 1016.3
20260902212354 92 230 3.0 3.0 0.00 0.00 0.00 63 1016.1
20260902211851 91 232 4.0 5.0 0.00 0.00 0.00 64 1016.3
20260902211346 90 237 0.0 0.0 0.00 0.00 0.00 65 1016.4
20260902210841 91 224 2.0 3.0 0.00 0.00 0.00 63 1016.3
20260902210341 92 256 1.0 1.0 0.00 0.00 0.00 62 1016.6
20260902205839 92 253 2.0 2.0 0.00 0.00 0.00 62 1016.8
20260902205334 93 219 1.0 2.0 0.00 0.00 0.00 60 1017.0
20260902204830 93 262 3.0 5.0 0.00 0.00 0.00 60 1017.1
20260902204324 92 226 2.0 3.0 0.00 0.00 0.00 61 1017.1
20260902203820 93 227 1.0 1.0 0.00 0.00 0.00 62 1017.1
20260902203315 93 233 2.0 2.0 0.00 0.00 0.00 60 1017.0
20260902202814 93 247 3.0 5.0 0.00 0.00 0.00 62 1017.3
20260902202310 92 234 1.0 1.0 0.00 0.00 0.00 63 1017.1
20260902201806 92 307 5.0 7.0 0.00 0.00 0.00 62 1017.3
20260902201301 92 244 2.0 2.0 0.00 0.00 0.00 63 1017.4
20260902200756 92 255 4.0 5.0 0.00 0.00 0.00 64 1017.5
20260902200251 92 193 2.0 3.0 0.00 0.00 0.00 62 1017.7
20260902195746 92 242 1.0 2.0 0.00 0.00 0.00 62 1017.3
20260902195245 92 251 0.0 0.0 0.00 0.00 0.00 64 1017.2
20260902194740 93 241 0.0 0.0 0.00 0.00 0.00 64 1017.4
20260902194235 93 239 0.0 0.0 0.00 0.00 0.00 65 1017.8
20260902193731 92 217 1.0 1.0 0.00 0.00 0.00 65 1017.9
20260902193226 92 279 2.0 3.0 0.00 0.00 0.00 66 1017.8
20260902192724 92 236 0.0 1.0 0.00 0.00 0.00 65 1017.9
20260902192219 93 199 3.0 5.0 0.00 0.00 0.00 65 1018.1
20260902191719 94 247 0.0 1.0 0.00 0.00 0.00 64 1017.9
20260902191213 93 229 1.0 2.0 0.00 0.00 0.00 65 1018.1
20260902190708 92 231 1.0 2.0 0.00 0.00 0.00 65 1018.1
20260902190203 91 248 0.0 0.0 0.00 0.00 0.00 67 1018.1
20260902185659 91 228 3.0 5.0 0.00 0.00 0.00 66 1018.3
20260902185155 92 257 3.0 3.0 0.00 0.00 0.00 65 1018.1
20260902184649 91 233 1.0 2.0 0.00 0.00 0.00 66 1018.2
20260902184145 91 215 0.0 1.0 0.00 0.00 0.00 66 1018.0
20260902183641 91 234 0.0 0.0 0.00 0.00 0.00 67 1018.1
20260902183137 92 205 0.0 0.0 0.00 0.00 0.00 65 1018.0
20260902182633 92 235 0.0 0.0 0.00 0.00 0.00 65 1017.6
20260902182129 92 246 1.0 1.0 0.00 0.00 0.00 65 1017.5
20260902181626 92 221 2.0 3.0 0.00 0.00 0.00 65 1017.8
20260902181125 93 202 0.0 0.0 0.00 0.00 0.00 64 1017.9
20260902180624 91 253 0.0 0.0 0.00 0.00 0.00 65 1017.6
20260902180121 91 211 0.0 0.0 0.00 0.00 0.00 65 1017.9
20260902175620 91 239 0.0 1.0 0.00 0.00 0.00 64 1017.7
20260902175116 91 228 0.0 1.0 0.00 0.00 0.00 66 1017.7
20260902174612 91 242 1.0 1.0 0.00 0.00 0.00 66 1017.9
20260902174107 90 220 2.0 3.0 0.00 0.00 0.00 65 1017.9
20260902173602 90 236 3.0 5.0 0.00 0.00 0.00 65 1018.3
20260902173057 91 239 2.0 2.0 0.00 0.00 0.00 64 1018.4
20260902172551 91 246 2.0 3.0 0.00 0.00 0.00 66 1018.5
20260902172046 90 220 0.0 1.0 0.00 0.00 0.00 66 1018.7
20260902171542 91 241 2.0 2.0 0.00 0.00 0.00 66 1018.6
20260902171037 90 234 1.0 1.0 0.00 0.00 0.00 66 1018.4
20260902170532 91 266 2.0 2.0 0.00 0.00 0.00 66 1018.6
20260902170028 90 246 2.0 5.0 0.00 0.00 0.00 66 1018.3
20260902165527 90 240 0.0 1.0 0.00 0.00 0.00 66 1018.4
20260902165022 90 234 0.0 1.0 0.00 0.00 0.00 67 1018.6
20260902164517 89 290 1.0 2.0 0.00 0.00 0.00 66 1018.5
20260902164016 91 228 0.0 0.0 0.00 0.00 0.00 65 1018.5
20260902163512 91 204 2.0 2.0 0.00 0.00 0.00 62 1018.7
20260902163010 90 229 1.0 2.0 0.00 0.00 0.00 65 1018.6
20260902162510 90 229 0.0 0.0 0.00 0.00 0.00 66 1018.8
20260902162005 90 229 1.0 2.0 0.00 0.00 0.00 67 1018.7
20260902161500 90 243 2.0 2.0 0.00 0.00 0.00 67 1018.6
20260902160956 90 242 1.0 2.0 0.00 0.00 0.00 66 1018.6
20260902160451 89 233 0.0 1.0 0.00 0.00 0.00 66 1018.4
20260902155949 89 235 0.0 0.0 0.00 0.00 0.00 68 1018.5
20260902155444 90 223 0.0 1.0 0.00 0.00 0.00 67 1018.5
20260902154938 89 218 0.0 0.0 0.00 0.00 0.00 67 1018.6
20260902154434 89 242 1.0 2.0 0.00 0.00 0.00 66 1018.6
20260902153933 89 183 2.0 3.0 0.00 0.00 0.00 66 1018.6
20260902153432 89 221 3.0 3.0 0.00 0.00 0.00 67 1018.5
20260902152928 88 250 3.0 3.0 0.00 0.00 0.00 67 1018.6
20260902152424 88 247 2.0 2.0 0.00 0.00 0.00 68 1018.6
20260902151919 89 250 1.0 2.0 0.00 0.00 0.00 68 1018.8
20260902151415 88 248 1.0 2.0 0.00 0.00 0.00 69 1018.4
20260902150909 87 262 4.0 6.0 0.00 0.00 0.00 69 1018.6
20260902150405 87 243 2.0 3.0 0.00 0.00 0.00 70 1018.9
20260902145904 87 231 0.0 0.0 0.00 0.00 0.00 71 1018.5
20260902145400 86 241 1.0 2.0 0.00 0.00 0.00 72 1018.7
20260902144855 87 216 0.0 1.0 0.00 0.00 0.00 72 1018.8
20260902144351 87 236 0.0 1.0 0.00 0.00 0.00 70 1018.7
20260902143850 86 226 0.0 0.0 0.00 0.00 0.00 72 1018.7
20260902143346 86 245 1.0 2.0 0.00 0.00 0.00 73 1018.3
20260902142842 86 234 1.0 1.0 0.00 0.00 0.00 72 1018.7
20260902142337 85 257 2.0 2.0 0.00 0.00 0.00 74 1018.5
20260902141832 84 230 1.0 1.0 0.00 0.00 0.00 75 1018.5
20260902141328 84 261 3.0 5.0 0.00 0.00 0.00 75 1018.5
20260902140827 84 235 0.0 0.0 0.00 0.00 0.00 77 1018.6
20260902140323 84 253 1.0 1.0 0.00 0.00 0.00 76 1018.5
20260902135821 83 240 0.0 0.0 0.00 0.00 0.00 77 1018.7
20260902135318 82 245 0.0 0.0 0.00 0.00 0.00 79 1018.5
20260902134817 82 233 0.0 0.0 0.00 0.00 0.00 79 1018.5
20260902134313 82 233 0.0 0.0 0.00 0.00 0.00 80 1018.5
20260902133808 80 236 1.0 1.0 0.00 0.00 0.00 81 1018.6
20260902133307 80 232 0.0 0.0 0.00 0.00 0.00 82 1018.6
20260902132803 80 248 0.0 0.0 0.00 0.00 0.00 82 1018.6
20260902132258 79 221 1.0 1.0 0.00 0.00 0.00 82 1018.7
20260902131753 80 239 0.0 0.0 0.00 0.00 0.00 82 1018.8
20260902131250 79 234 0.0 0.0 0.00 0.00 0.00 82 1018.6
20260902130749 78 239 0.0 0.0 0.00 0.00 0.00 83 1018.4
20260902130245 78 238 0.0 0.0 0.00 0.00 0.00 84 1018.6
20260902125740 78 232 0.0 0.0 0.00 0.00 0.00 84 1018.5
20260902125236 78 235 0.0 0.0 0.00 0.00 0.00 84 1018.5
20260902124732 78 232 0.0 0.0 0.00 0.00 0.00 83 1018.5
20260902124227 79 245 0.0 0.0 0.00 0.00 0.00 82 1018.5
20260902123717 79 237 0.0 0.0 0.00 0.00 0.00 82 1018.3
20260902123213 78 234 0.0 0.0 0.00 0.00 0.00 84 1018.3
20260902122712 77 231 0.0 0.0 0.00 0.00 0.00 85 1018.3
20260902122207 76 240 0.0 0.0 0.00 0.00 0.00 86 1018.3
20260902121702 76 237 0.0 0.0 0.00 0.00 0.00 86 1018.5
20260902121156 76 236 0.0 0.0 0.00 0.00 0.00 87 1018.5
20260902120653 75 240 0.0 0.0 0.00 0.00 0.00 87 1018.4
20260902120149 75 241 0.0 0.0 0.00 0.00 0.00 87 1018.6
20260902115649 75 238 0.0 0.0 0.00 0.00 0.00 87 1018.2
20260902115145 75 240 0.0 0.0 0.00 0.00 0.00 88 1018.2
20260902114641 75 242 0.0 0.0 0.00 0.00 0.00 88 1018.3
20260902114136 74 207 0.0 0.0 0.00 0.00 0.00 88 1018.1
20260902113631 74 242 0.0 0.0 0.00 0.00 0.00 89 1018.1
20260902113126 74 242 0.0 0.0 0.00 0.00 0.00 89 1018.1
20260902112621 74 243 0.0 0.0 0.00 0.00 0.00 89 1018.1
20260902112118 74 243 0.0 0.0 0.00 0.00 0.00 89 1017.9
20260902111614 75 236 0.0 0.0 0.00 0.00 0.00 88 1017.7
20260902111109 75 239 0.0 0.0 0.00 0.00 0.00 88 1017.9
20260902110605 75 248 0.0 0.0 0.00 0.00 0.00 88 1017.9
20260902110100 75 243 0.0 0.0 0.00 0.00 0.00 88 1017.8
20260902105555 75 242 0.0 0.0 0.00 0.00 0.00 88 1017.6
20260902105055 75 238 0.0 0.0 0.00 0.00 0.00 89 1017.8
20260902104551 74 236 0.0 0.0 0.00 0.00 0.00 89 1017.4
20260902104045 75 241 0.0 0.0 0.00 0.00 0.00 89 1017.8
20260902103540 75 241 0.0 0.0 0.00 0.00 0.00 89 1017.5
20260902103035 75 243 0.0 0.0 0.00 0.00 0.00 89 1017.7
20260902102532 74 241 0.0 0.0 0.00 0.00 0.00 89 1017.7
20260902102029 75 242 0.0 0.0 0.00 0.00 0.00 89 1017.6
20260902101524 75 238 0.0 0.0 0.00 0.00 0.00 89 1017.6
20260902101022 75 239 0.0 0.0 0.00 0.00 0.00 89 1017.6
20260902100517 74 239 0.0 0.0 0.00 0.00 0.00 89 1017.7
20260902100012 74 242 0.0 0.0 0.00 0.00 0.00 89 1017.8
20260902095511 75 236 0.0 0.0 0.00 0.00 0.00 89 1017.8
20260902095010 75 237 0.0 0.0 0.00 0.00 0.00 89 1017.7
20260902094506 75 236 0.0 0.0 0.00 0.00 0.00 88 1017.8
20260902094001 75 234 0.0 0.0 0.00 0.00 0.00 88 1017.7
20260902093456 75 241 0.0 0.0 0.00 0.00 0.00 88 1017.8
20260902092955 75 245 0.0 0.0 0.00 0.00 0.00 88 1017.7
20260902092451 75 241 0.0 0.0 0.00 0.00 0.00 88 1017.8
20260902091950 75 237 0.0 0.0 0.00 0.00 0.00 88 1017.8
20260902091446 76 235 0.0 0.0 0.00 0.00 0.00 88 1017.9
20260902090942 75 239 0.0 0.0 0.00 0.00 0.00 88 1017.6
20260902090437 75 240 0.0 0.0 0.00 0.00 0.00 88 1017.6
20260902085936 75 245 0.0 0.0 0.00 0.00 0.00 89 1017.6
20260902085431 75 247 0.0 0.0 0.00 0.00 0.00 89 1017.5
20260902084927 75 242 0.0 0.0 0.00 0.00 0.00 89 1017.5
20260902084424 75 227 0.0 0.0 0.00 0.00 0.00 89 1017.6
20260902083919 75 237 0.0 0.0 0.00 0.00 0.00 89 1017.6
20260902083419 75 237 0.0 0.0 0.00 0.00 0.00 89 1017.7
20260902082913 75 236 0.0 0.0 0.00 0.00 0.00 88 1017.6
20260902082409 75 236 0.0 0.0 0.00 0.00 0.00 88 1017.8
20260902081906 75 239 0.0 0.0 0.00 0.00 0.00 88 1017.7
20260902081402 75 227 0.0 0.0 0.00 0.00 0.00 88 1017.6
20260902080856 75 235 0.0 0.0 0.00 0.00 0.00 87 1017.6
20260902080352 75 235 0.0 0.0 0.00 0.00 0.00 87 1017.6
20260902075852 75 235 0.0 0.0 0.00 0.00 0.00 87 1017.7
20260902075348 75 222 0.0 0.0 0.00 0.00 0.00 88 1017.6
20260902074843 75 237 0.0 0.0 0.00 0.00 0.00 88 1017.6
20260902074339 75 238 0.0 0.0 0.00 0.00 0.00 88 1017.5
20260902073834 75 235 0.0 0.0 0.00 0.00 0.00 89 1017.5
20260902073330 75 236 0.0 0.0 0.00 0.00 0.00 89 1017.7
20260902072826 74 237 0.0 0.0 0.00 0.00 0.00 90 1017.5
20260902072321 74 235 0.0 0.0 0.00 0.00 0.00 90 1017.6
20260902071817 74 237 0.0 0.0 0.00 0.00 0.00 91 1017.5
20260902071312 74 238 0.0 0.0 0.00 0.00 0.00 91 1017.6
20260902070809 74 243 0.0 0.0 0.00 0.00 0.00 92 1017.5
20260902070308 74 243 0.0 0.0 0.00 0.00 0.00 92 1017.4
20260902065807 74 236 0.0 0.0 0.00 0.00 0.00 92 1017.4